{"data":{"norad_id":55338,"intl_designator":"2023-013H","name":"STARLINK-5658","alt_names":[],"object_type":"PAYLOAD","status":"ACTIVE","operator":null,"country":"US","launch_date":"2023-01-26","launch_site_code":"AFETR","launch_vehicle":null,"mission":null,"orbit_class":"UNKNOWN","rcs_meters":null,"size_class":null,"mass_kg":null,"dimensions":null,"purposes":["comms"],"wikipedia_slug":null,"has_3d_model":false,"image_url":null,"decayed_at":null,"tle_current":{"epoch":"2026-09-20T10:24:28.315584Z","epoch_age_seconds":102390,"freshness":"FRESH","line1":"1 55338U 23013H   26263.43366106 -.00000255  00000+0  26534-6 0  9999","line2":"2 55338  43.0032 283.8866 0001105 286.7540  73.3190 15.27576244201456","mean_motion":15.27576244,"eccentricity":0.0001105,"inclination_deg":43.0032,"raan_deg":283.8866,"arg_perigee_deg":286.754,"mean_anomaly_deg":73.319,"bstar":2.6534e-7,"rev_number":20145,"period_min":94.266980496458,"perigee_km":482.30218057152,"apogee_km":483.8185051843,"semimajor_km":6861.1973428779,"source":"CELESTRAK","updated_at":"2026-09-21T09:00:33.179376Z"}}}